Time,TemperatureF,DewpointF,PressureIn,WindDirection,WindDirectionDegrees,WindSpeedMPH,WindSpeedGustMPH,Humidity,HourlyPrecipIn,Conditions,Clouds,dailyrainin,SoftwareType,DateUTC
2013-08-07 00:00:00,66.4,49.3,29.14,North,0,0.0,0.0,54,0.00,,,0.00,meteohub,2013-08-07 04:00:00,
2013-08-07 00:01:00,66.4,49.3,29.14,North,0,0.0,0.0,54,0.00,,,0.00,meteohub,2013-08-07 04:01:00,
2013-08-07 00:02:00,66.4,49.3,29.14,North,0,0.0,0.0,54,0.00,,,0.00,meteohub,2013-08-07 04:02:00,
2013-08-07 00:07:00,66.4,49.3,29.14,North,0,0.0,0.0,54,0.00,,,0.00,meteohub,2013-08-07 04:07:00,
2013-08-07 00:12:00,66.7,49.1,29.14,North,0,0.0,0.0,53,0.00,,,0.00,meteohub,2013-08-07 04:12:00,
2013-08-07 00:17:00,66.7,49.1,29.14,North,0,0.0,0.0,53,0.00,,,0.00,meteohub,2013-08-07 04:17:00,
2013-08-07 00:22:00,67.1,49.5,29.14,North,0,0.0,0.0,53,0.00,,,0.00,meteohub,2013-08-07 04:22:00,
2013-08-07 00:27:00,67.1,49.5,29.14,North,0,0.0,0.0,53,0.00,,,0.00,meteohub,2013-08-07 04:27:00,
2013-08-07 00:32:00,67.5,49.8,29.14,North,0,0.0,0.0,53,0.00,,,0.00,meteohub,2013-08-07 04:32:00,
2013-08-07 00:37:00,67.5,49.8,29.14,North,0,0.0,0.0,53,0.00,,,0.00,meteohub,2013-08-07 04:37:00,
2013-08-07 00:42:00,67.6,49.8,29.14,North,0,0.0,0.0,53,0.00,,,0.00,meteohub,2013-08-07 04:42:00,
2013-08-07 00:47:00,67.8,50.0,29.14,North,0,0.0,0.0,53,0.00,,,0.00,meteohub,2013-08-07 04:47:00,
2013-08-07 00:52:00,67.8,50.0,29.14,North,0,0.0,0.0,53,0.00,,,0.00,meteohub,2013-08-07 04:52:00,
2013-08-07 00:57:00,67.8,50.5,29.14,North,0,0.0,0.0,54,0.00,,,0.00,meteohub,2013-08-07 04:57:00,
2013-08-07 01:02:00,68.0,50.7,29.14,North,0,0.0,0.0,54,0.00,,,0.00,meteohub,2013-08-07 05:02:00,
2013-08-07 01:07:00,68.0,50.7,29.14,North,0,0.0,0.0,54,0.00,,,0.00,meteohub,2013-08-07 05:07:00,
2013-08-07 01:12:00,68.0,51.3,29.14,North,0,0.0,0.0,55,0.00,,,0.00,meteohub,2013-08-07 05:12:00,
2013-08-07 01:17:00,68.0,51.3,29.14,North,0,0.0,0.0,55,0.00,,,0.00,meteohub,2013-08-07 05:17:00,
2013-08-07 01:22:00,67.8,51.1,29.14,North,0,0.0,0.0,55,0.00,,,0.00,meteohub,2013-08-07 05:22:00,
2013-08-07 01:27:00,67.8,51.6,29.14,North,0,0.0,0.0,56,0.00,,,0.00,meteohub,2013-08-07 05:27:00,
2013-08-07 01:32:00,67.8,51.6,29.14,North,0,0.0,0.0,56,0.00,,,0.00,meteohub,2013-08-07 05:32:00,
2013-08-07 01:37:00,67.8,51.6,29.14,North,0,0.0,0.0,56,0.00,,,0.00,meteohub,2013-08-07 05:37:00,
2013-08-07 01:42:00,67.6,51.4,29.14,North,0,0.0,0.0,56,0.00,,,0.00,meteohub,2013-08-07 05:42:00,
2013-08-07 01:47:00,67.8,51.6,29.14,North,0,0.0,0.0,56,0.00,,,0.00,meteohub,2013-08-07 05:47:00,
2013-08-07 01:52:00,67.8,51.6,29.14,North,0,0.0,0.0,56,0.00,,,0.00,meteohub,2013-08-07 05:52:00,
2013-08-07 01:57:00,67.8,51.6,29.14,North,0,0.0,0.0,56,0.00,,,0.00,meteohub,2013-08-07 05:57:00,
2013-08-07 02:02:00,67.8,51.6,29.14,North,0,0.0,0.0,56,0.00,,,0.00,meteohub,2013-08-07 06:02:00,
2013-08-07 02:07:00,67.8,51.6,29.14,North,0,0.0,0.0,56,0.00,,,0.00,meteohub,2013-08-07 06:07:00,
2013-08-07 02:12:00,67.8,51.6,29.14,North,0,0.0,0.0,56,0.00,,,0.00,meteohub,2013-08-07 06:12:00,
2013-08-07 02:17:00,67.8,51.6,29.14,North,0,0.0,0.0,56,0.00,,,0.00,meteohub,2013-08-07 06:17:00,
2013-08-07 02:22:00,67.6,51.4,29.14,North,0,0.0,0.0,56,0.00,,,0.00,meteohub,2013-08-07 06:22:00,
2013-08-07 02:27:00,67.6,51.4,29.14,North,0,0.0,0.0,56,0.00,,,0.00,meteohub,2013-08-07 06:27:00,
2013-08-07 02:32:00,67.6,51.4,29.14,North,0,0.0,0.0,56,0.00,,,0.00,meteohub,2013-08-07 06:32:00,
2013-08-07 02:37:00,67.5,51.3,29.14,North,0,0.0,0.0,56,0.00,,,0.00,meteohub,2013-08-07 06:37:00,
2013-08-07 02:42:00,67.5,51.3,29.14,North,0,0.0,0.0,56,0.00,,,0.00,meteohub,2013-08-07 06:42:00,
2013-08-07 02:47:00,67.5,51.3,29.14,North,0,0.0,0.0,56,0.00,,,0.00,meteohub,2013-08-07 06:47:00,
2013-08-07 02:52:00,67.6,51.4,29.14,North,0,0.0,0.0,56,0.00,,,0.00,meteohub,2013-08-07 06:52:00,
2013-08-07 02:57:00,67.6,51.4,29.14,North,0,0.0,0.0,56,0.00,,,0.00,meteohub,2013-08-07 06:57:00,
2013-08-07 03:02:00,67.8,51.6,29.14,North,0,0.0,0.0,56,0.00,,,0.00,meteohub,2013-08-07 07:02:00,
2013-08-07 03:07:00,67.8,51.6,29.14,North,0,0.0,0.0,56,0.00,,,0.00,meteohub,2013-08-07 07:07:00,
2013-08-07 03:12:00,67.8,51.6,29.14,North,0,0.0,0.0,56,0.00,,,0.00,meteohub,2013-08-07 07:12:00,
2013-08-07 03:17:00,68.0,51.3,29.14,North,0,0.0,0.0,55,0.00,,,0.00,meteohub,2013-08-07 07:17:00,
2013-08-07 03:22:00,68.2,51.4,29.14,North,0,0.0,0.0,55,0.00,,,0.00,meteohub,2013-08-07 07:22:00,
2013-08-07 03:27:00,68.2,51.4,29.14,North,0,0.0,0.0,55,0.00,,,0.00,meteohub,2013-08-07 07:27:00,
2013-08-07 03:33:00,68.2,51.4,29.14,North,0,0.0,0.0,55,0.00,,,0.00,meteohub,2013-08-07 07:33:00,
2013-08-07 03:38:00,68.5,51.3,29.14,North,0,0.0,0.0,54,0.00,,,0.00,meteohub,2013-08-07 07:38:00,
2013-08-07 03:43:00,68.5,51.3,29.14,North,0,0.0,0.0,54,0.00,,,0.00,meteohub,2013-08-07 07:43:00,
2013-08-07 03:48:00,68.5,50.7,29.14,North,0,0.0,0.0,53,0.00,,,0.00,meteohub,2013-08-07 07:48:00,
2013-08-07 03:53:00,68.4,50.5,29.14,North,0,0.0,0.0,53,0.00,,,0.00,meteohub,2013-08-07 07:53:00,
2013-08-07 03:57:00,67.8,51.1,29.14,North,0,0.0,0.0,55,0.00,,,0.00,meteohub,2013-08-07 07:57:00,
2013-08-07 04:02:00,67.1,50.9,29.14,North,0,0.0,0.0,56,0.00,,,0.00,meteohub,2013-08-07 08:02:00,
2013-08-07 04:07:00,66.2,50.0,29.14,North,0,0.0,0.0,56,0.00,,,0.00,meteohub,2013-08-07 08:07:00,
2013-08-07 04:13:00,65.7,49.5,29.14,North,0,0.0,0.0,56,0.00,,,0.00,meteohub,2013-08-07 08:13:00,
2013-08-07 04:18:00,65.1,48.6,29.14,North,0,0.0,0.0,55,0.00,,,0.00,meteohub,2013-08-07 08:18:00,
2013-08-07 04:23:00,64.6,48.0,29.14,North,0,0.0,0.0,55,0.00,,,0.00,meteohub,2013-08-07 08:23:00,
2013-08-07 04:28:00,64.4,47.8,29.14,North,0,0.0,0.0,55,0.00,,,0.00,meteohub,2013-08-07 08:28:00,
2013-08-07 04:33:00,64.2,47.7,29.14,North,0,0.0,0.0,55,0.00,,,0.00,meteohub,2013-08-07 08:33:00,
2013-08-07 04:38:00,64.0,47.1,29.14,North,0,0.0,0.0,54,0.00,,,0.00,meteohub,2013-08-07 08:38:00,
2013-08-07 04:43:00,63.9,46.9,29.14,North,0,0.0,0.0,54,0.00,,,0.00,meteohub,2013-08-07 08:43:00,
2013-08-07 04:48:00,63.9,46.9,29.14,North,0,0.0,0.0,54,0.00,,,0.00,meteohub,2013-08-07 08:48:00,
2013-08-07 04:53:00,63.7,46.2,29.14,North,0,0.0,0.0,53,0.00,,,0.00,meteohub,2013-08-07 08:53:00,
2013-08-07 04:58:00,63.5,46.0,29.14,North,0,0.0,0.0,53,0.00,,,0.00,meteohub,2013-08-07 08:58:00,
2013-08-07 05:03:00,63.3,45.9,29.14,North,0,0.0,0.0,53,0.00,,,0.00,meteohub,2013-08-07 09:03:00,
2013-08-07 05:08:00,63.1,45.7,29.14,North,0,0.0,0.0,53,0.00,,,0.00,meteohub,2013-08-07 09:08:00,
2013-08-07 05:13:00,63.1,45.7,29.14,North,0,0.0,0.0,53,0.00,,,0.00,meteohub,2013-08-07 09:13:00,
2013-08-07 05:18:00,63.0,45.5,29.14,North,0,0.0,0.0,53,0.00,,,0.00,meteohub,2013-08-07 09:18:00,
2013-08-07 05:23:00,63.0,45.5,29.14,North,0,0.0,0.0,53,0.00,,,0.00,meteohub,2013-08-07 09:23:00,
2013-08-07 05:28:00,62.8,45.3,29.14,North,0,0.0,0.0,53,0.00,,,0.00,meteohub,2013-08-07 09:28:00,
2013-08-07 05:33:00,62.6,45.1,29.14,North,0,0.0,0.0,53,0.00,,,0.00,meteohub,2013-08-07 09:33:00,
2013-08-07 05:38:00,62.4,45.1,29.14,North,0,0.0,0.0,53,0.00,,,0.00,meteohub,2013-08-07 09:38:00,
2013-08-07 05:43:00,62.4,45.1,29.14,North,0,0.0,0.0,53,0.00,,,0.00,meteohub,2013-08-07 09:43:00,
2013-08-07 05:48:00,62.4,45.1,29.14,North,0,0.0,0.0,53,0.00,,,0.00,meteohub,2013-08-07 09:48:00,
2013-08-07 05:53:00,62.2,45.0,29.14,North,0,0.0,0.0,53,0.00,,,0.00,meteohub,2013-08-07 09:53:00,
2013-08-07 05:58:00,62.2,44.4,29.14,North,0,0.0,0.0,52,0.00,,,0.00,meteohub,2013-08-07 09:58:00,
2013-08-07 06:03:00,62.2,44.4,29.14,North,0,0.0,0.0,52,0.00,,,0.00,meteohub,2013-08-07 10:03:00,
2013-08-07 06:08:00,62.2,44.4,29.14,North,0,0.0,0.0,52,0.00,,,0.00,meteohub,2013-08-07 10:08:00,
2013-08-07 06:13:00,62.2,44.4,29.14,North,0,0.0,0.0,52,0.00,,,0.00,meteohub,2013-08-07 10:13:00,
2013-08-07 06:18:00,62.2,44.4,29.14,North,0,0.0,0.0,52,0.00,,,0.00,meteohub,2013-08-07 10:18:00,
2013-08-07 06:23:00,62.2,44.4,29.14,North,0,0.0,0.0,52,0.00,,,0.00,meteohub,2013-08-07 10:23:00,
2013-08-07 06:28:00,62.2,44.4,29.14,North,0,0.0,0.0,52,0.00,,,0.00,meteohub,2013-08-07 10:28:00,
2013-08-07 06:33:00,62.2,44.4,29.14,North,0,0.0,0.0,52,0.00,,,0.00,meteohub,2013-08-07 10:33:00,
2013-08-07 06:38:00,62.4,44.6,29.14,North,0,0.0,0.0,52,0.00,,,0.00,meteohub,2013-08-07 10:38:00,
2013-08-07 06:43:00,62.4,44.6,29.14,North,0,0.0,0.0,52,0.00,,,0.00,meteohub,2013-08-07 10:43:00,
2013-08-07 06:48:00,62.4,44.6,29.14,North,0,0.0,0.0,52,0.00,,,0.00,meteohub,2013-08-07 10:48:00,
2013-08-07 06:53:00,62.4,44.6,29.14,North,0,0.0,0.0,52,0.00,,,0.00,meteohub,2013-08-07 10:53:00,
2013-08-07 06:59:00,62.4,44.6,29.14,North,0,0.0,0.0,52,0.00,,,0.00,meteohub,2013-08-07 10:59:00,
2013-08-07 07:04:00,62.4,44.6,29.14,North,0,0.0,0.0,52,0.00,,,0.00,meteohub,2013-08-07 11:04:00,
2013-08-07 07:09:00,62.4,44.6,29.14,North,0,0.0,0.0,52,0.00,,,0.00,meteohub,2013-08-07 11:09:00,
2013-08-07 07:14:00,62.4,44.6,29.14,North,0,0.0,0.0,52,0.00,,,0.00,meteohub,2013-08-07 11:14:00,
2013-08-07 07:19:00,62.4,44.6,29.14,North,0,0.0,0.0,52,0.00,,,0.00,meteohub,2013-08-07 11:19:00,
2013-08-07 07:24:00,62.6,44.8,29.14,North,0,0.0,0.0,52,0.00,,,0.00,meteohub,2013-08-07 11:24:00,
2013-08-07 07:29:00,62.8,45.0,29.14,North,0,0.0,0.0,52,0.00,,,0.00,meteohub,2013-08-07 11:29:00,
2013-08-07 07:34:00,62.8,45.0,29.14,North,0,0.0,0.0,52,0.00,,,0.00,meteohub,2013-08-07 11:34:00,
2013-08-07 07:39:00,62.8,44.4,29.14,North,0,0.0,0.0,51,0.00,,,0.00,meteohub,2013-08-07 11:39:00,
2013-08-07 07:44:00,63.0,44.6,29.14,North,0,0.0,0.0,51,0.00,,,0.00,meteohub,2013-08-07 11:44:00,
2013-08-07 07:49:00,63.1,44.8,29.14,North,0,0.0,0.0,51,0.00,,,0.00,meteohub,2013-08-07 11:49:00,
2013-08-07 07:54:00,63.1,44.8,29.14,North,0,0.0,0.0,51,0.00,,,0.00,meteohub,2013-08-07 11:54:00,
2013-08-07 07:59:00,63.1,44.8,29.14,North,0,0.0,0.0,51,0.00,,,0.00,meteohub,2013-08-07 11:59:00,
2013-08-07 08:04:00,63.1,44.8,29.14,North,0,0.0,0.0,51,0.00,,,0.00,meteohub,2013-08-07 12:04:00,
2013-08-07 08:09:00,63.1,44.8,29.14,North,0,0.0,0.0,51,0.00,,,0.00,meteohub,2013-08-07 12:09:00,
2013-08-07 08:14:00,63.1,44.8,29.14,North,0,0.0,0.0,51,0.00,,,0.00,meteohub,2013-08-07 12:14:00,
2013-08-07 08:19:00,63.3,45.3,29.14,North,0,0.0,0.0,52,0.00,,,0.00,meteohub,2013-08-07 12:19:00,
2013-08-07 08:24:00,63.3,45.3,29.14,North,0,0.0,0.0,52,0.00,,,0.00,meteohub,2013-08-07 12:24:00,
2013-08-07 08:29:00,63.7,45.7,29.14,North,0,0.0,0.0,52,0.00,,,0.00,meteohub,2013-08-07 12:29:00,
2013-08-07 08:34:00,63.9,45.9,29.14,North,0,0.0,0.0,52,0.00,,,0.00,meteohub,2013-08-07 12:34:00,
2013-08-07 08:39:00,63.9,45.9,29.14,North,0,0.0,0.0,52,0.00,,,0.00,meteohub,2013-08-07 12:39:00,
2013-08-07 08:44:00,63.9,45.9,29.14,North,0,0.0,0.0,52,0.00,,,0.00,meteohub,2013-08-07 12:44:00,
2013-08-07 08:49:00,63.9,45.9,29.14,North,0,0.0,0.0,52,0.00,,,0.00,meteohub,2013-08-07 12:49:00,
2013-08-07 08:54:00,63.9,45.9,29.14,North,0,0.0,0.0,52,0.00,,,0.00,meteohub,2013-08-07 12:54:00,
2013-08-07 08:59:00,63.9,45.9,29.14,North,0,0.0,0.0,52,0.00,,,0.00,meteohub,2013-08-07 12:59:00,
2013-08-07 09:04:00,64.0,46.0,29.14,North,0,0.0,0.0,52,0.00,,,0.00,meteohub,2013-08-07 13:04:00,
2013-08-07 09:09:00,64.2,46.2,29.14,North,0,0.0,0.0,52,0.00,,,0.00,meteohub,2013-08-07 13:09:00,
2013-08-07 09:14:00,64.2,46.2,29.14,North,0,0.0,0.0,52,0.00,,,0.00,meteohub,2013-08-07 13:14:00,
2013-08-07 09:19:00,64.4,46.4,29.14,North,0,0.0,0.0,52,0.00,,,0.00,meteohub,2013-08-07 13:19:00,
2013-08-07 09:24:00,64.6,46.6,29.14,North,0,0.0,0.0,52,0.00,,,0.00,meteohub,2013-08-07 13:24:00,
2013-08-07 09:29:00,64.8,46.8,29.14,North,0,0.0,0.0,52,0.00,,,0.00,meteohub,2013-08-07 13:29:00,
2013-08-07 09:34:00,65.1,47.1,29.14,North,0,0.0,0.0,52,0.00,,,0.00,meteohub,2013-08-07 13:34:00,
2013-08-07 09:39:00,65.3,47.3,29.14,North,0,0.0,0.0,52,0.00,,,0.00,meteohub,2013-08-07 13:39:00,
2013-08-07 09:44:00,65.5,46.9,29.14,North,0,0.0,0.0,51,0.00,,,0.00,meteohub,2013-08-07 13:44:00,
2013-08-07 09:49:00,65.7,47.1,29.14,North,0,0.0,0.0,51,0.00,,,0.00,meteohub,2013-08-07 13:49:00,
2013-08-07 09:54:00,65.5,46.9,29.14,North,0,0.0,0.0,51,0.00,,,0.00,meteohub,2013-08-07 13:54:00,
2013-08-07 09:59:00,65.5,46.9,29.14,North,0,0.0,0.0,51,0.00,,,0.00,meteohub,2013-08-07 13:59:00,
2013-08-07 10:04:00,65.5,46.9,29.14,North,0,0.0,0.0,51,0.00,,,0.00,meteohub,2013-08-07 14:04:00,
2013-08-07 10:09:00,66.0,47.3,29.14,North,0,0.0,0.0,51,0.00,,,0.00,meteohub,2013-08-07 14:09:00,
2013-08-07 10:14:00,66.4,47.7,29.14,North,0,0.0,0.0,51,0.00,,,0.00,meteohub,2013-08-07 14:14:00,
2013-08-07 10:19:00,66.6,47.8,29.14,North,0,0.0,0.0,51,0.00,,,0.00,meteohub,2013-08-07 14:19:00,
2013-08-07 10:24:00,66.7,48.0,29.14,North,0,0.0,0.0,51,0.00,,,0.00,meteohub,2013-08-07 14:24:00,
2013-08-07 10:29:00,67.1,47.8,29.14,North,0,0.0,0.0,50,0.00,,,0.00,meteohub,2013-08-07 14:29:00,
2013-08-07 10:34:00,67.5,48.2,29.14,North,0,0.0,0.0,50,0.00,,,0.00,meteohub,2013-08-07 14:34:00,
2013-08-07 10:39:00,67.6,48.4,29.14,North,0,0.0,0.0,50,0.00,,,0.00,meteohub,2013-08-07 14:39:00,
2013-08-07 10:45:00,67.6,48.4,29.14,North,0,0.0,0.0,50,0.00,,,0.00,meteohub,2013-08-07 14:45:00,
2013-08-07 10:50:00,67.8,48.6,29.14,North,0,0.0,0.0,50,0.00,,,0.00,meteohub,2013-08-07 14:50:00,
2013-08-07 10:55:00,68.2,48.9,29.14,North,0,0.0,0.0,50,0.00,,,0.00,meteohub,2013-08-07 14:55:00,
2013-08-07 11:00:00,68.4,50.0,29.14,North,0,0.0,0.0,52,0.00,,,0.00,meteohub,2013-08-07 15:00:00,
2013-08-07 11:05:00,68.5,50.2,29.14,North,0,0.0,0.0,52,0.00,,,0.00,meteohub,2013-08-07 15:05:00,
2013-08-07 11:10:00,68.7,50.9,29.14,North,0,0.0,0.0,53,0.00,,,0.00,meteohub,2013-08-07 15:10:00,
2013-08-07 11:15:00,69.1,52.2,29.14,North,0,0.0,0.0,55,0.00,,,0.00,meteohub,2013-08-07 15:15:00,
2013-08-07 11:20:00,69.3,52.9,29.14,North,0,0.0,0.0,56,0.00,,,0.00,meteohub,2013-08-07 15:20:00,
2013-08-07 11:25:00,69.1,53.2,29.14,North,0,0.0,0.0,57,0.00,,,0.00,meteohub,2013-08-07 15:25:00,
2013-08-07 11:30:00,69.3,53.8,29.14,North,0,0.0,0.0,58,0.00,,,0.00,meteohub,2013-08-07 15:30:00,
2013-08-07 11:35:00,69.6,54.1,29.14,North,0,0.0,0.0,58,0.00,,,0.00,meteohub,2013-08-07 15:35:00,
2013-08-07 11:40:00,69.8,54.9,29.14,North,0,0.0,0.0,59,0.00,,,0.00,meteohub,2013-08-07 15:40:00,
2013-08-07 11:45:00,70.2,55.6,29.14,North,0,0.0,0.0,60,0.00,,,0.00,meteohub,2013-08-07 15:45:00,
2013-08-07 11:50:00,70.3,55.8,29.14,North,0,0.0,0.0,60,0.00,,,0.00,meteohub,2013-08-07 15:50:00,
2013-08-07 11:55:00,71.1,55.9,29.14,North,0,0.0,0.0,59,0.00,,,0.00,meteohub,2013-08-07 15:55:00,
2013-08-07 12:00:00,71.4,56.8,29.14,North,0,0.0,0.0,60,0.00,,,0.00,meteohub,2013-08-07 16:00:00,
2013-08-07 12:05:00,71.6,57.4,29.14,North,0,0.0,0.0,61,0.00,,,0.00,meteohub,2013-08-07 16:05:00,
2013-08-07 12:10:00,71.8,57.6,29.14,North,0,0.0,0.0,61,0.00,,,0.00,meteohub,2013-08-07 16:10:00,
2013-08-07 12:15:00,72.1,58.5,29.14,North,0,0.0,0.0,62,0.00,,,0.00,meteohub,2013-08-07 16:15:00,
2013-08-07 12:20:00,72.1,58.5,29.14,North,0,0.0,0.0,62,0.00,,,0.00,meteohub,2013-08-07 16:20:00,
2013-08-07 12:25:00,72.3,58.6,29.14,North,0,0.0,0.0,62,0.00,,,0.00,meteohub,2013-08-07 16:25:00,
2013-08-07 12:30:00,72.5,58.8,29.14,North,0,0.0,0.0,62,0.00,,,0.00,meteohub,2013-08-07 16:30:00,
2013-08-07 12:35:00,72.5,58.8,29.14,North,0,0.0,0.0,62,0.00,,,0.00,meteohub,2013-08-07 16:35:00,
2013-08-07 12:40:00,72.5,58.8,29.14,North,0,0.0,0.0,62,0.00,,,0.00,meteohub,2013-08-07 16:40:00,
2013-08-07 12:45:00,72.3,58.6,29.14,North,0,0.0,0.0,62,0.00,,,0.00,meteohub,2013-08-07 16:45:00,
2013-08-07 12:50:00,72.0,58.3,29.14,North,0,0.0,0.0,62,0.00,,,0.00,meteohub,2013-08-07 16:50:00,
2013-08-07 12:55:00,72.1,57.9,29.14,North,0,0.0,0.0,61,0.00,,,0.00,meteohub,2013-08-07 16:55:00,
2013-08-07 13:01:00,72.9,59.0,29.14,North,0,0.0,0.0,62,0.00,,,0.00,meteohub,2013-08-07 17:01:00,
2013-08-07 13:06:00,73.0,59.7,29.14,North,0,0.0,0.0,63,0.00,,,0.00,meteohub,2013-08-07 17:06:00,
2013-08-07 13:11:00,72.9,59.5,29.14,North,0,0.0,0.0,63,0.00,,,0.00,meteohub,2013-08-07 17:11:00,
2013-08-07 13:16:00,73.0,59.7,29.14,North,0,0.0,0.0,63,0.00,,,0.00,meteohub,2013-08-07 17:16:00,
2013-08-07 13:21:00,73.0,59.2,29.14,North,0,0.0,0.0,62,0.00,,,0.00,meteohub,2013-08-07 17:21:00,
2013-08-07 13:26:00,73.6,59.7,29.14,North,0,0.0,0.0,62,0.00,,,0.00,meteohub,2013-08-07 17:26:00,
2013-08-07 13:31:00,74.3,60.8,29.14,North,0,0.0,0.0,63,0.00,,,0.00,meteohub,2013-08-07 17:31:00,
2013-08-07 13:36:00,74.5,61.0,29.14,North,0,0.0,0.0,63,0.00,,,0.00,meteohub,2013-08-07 17:36:00,
2013-08-07 13:41:00,74.7,61.2,29.14,North,0,0.0,0.0,63,0.00,,,0.00,meteohub,2013-08-07 17:41:00,
2013-08-07 13:46:00,74.8,61.3,29.14,North,0,0.0,0.0,63,0.00,,,0.00,meteohub,2013-08-07 17:46:00,
2013-08-07 13:51:00,74.5,61.0,29.14,North,0,0.0,0.0,63,0.00,,,0.00,meteohub,2013-08-07 17:51:00,
2013-08-07 13:56:00,74.7,61.2,29.14,North,0,0.0,0.0,63,0.00,,,0.00,meteohub,2013-08-07 17:56:00,
2013-08-07 14:01:00,74.3,60.8,29.14,North,0,0.0,0.0,63,0.00,,,0.00,meteohub,2013-08-07 18:01:00,
2013-08-07 14:06:00,73.9,60.6,29.14,North,0,0.0,0.0,63,0.00,,,0.00,meteohub,2013-08-07 18:06:00,
2013-08-07 14:11:00,73.4,59.5,29.14,North,0,0.0,0.0,62,0.00,,,0.00,meteohub,2013-08-07 18:11:00,
2013-08-07 14:16:00,73.2,59.4,29.14,North,0,0.0,0.0,62,0.00,,,0.00,meteohub,2013-08-07 18:16:00,
2013-08-07 14:21:00,73.2,59.4,29.14,North,0,0.0,0.0,62,0.00,,,0.00,meteohub,2013-08-07 18:21:00,
2013-08-07 14:26:00,73.2,59.4,29.14,North,0,0.0,0.0,62,0.00,,,0.00,meteohub,2013-08-07 18:26:00,
2013-08-07 14:31:00,72.9,59.0,29.14,North,0,0.0,0.0,62,0.00,,,0.00,meteohub,2013-08-07 18:31:00,
2013-08-07 14:36:00,72.9,59.0,29.14,North,0,0.0,0.0,62,0.00,,,0.00,meteohub,2013-08-07 18:36:00,
2013-08-07 14:41:00,72.9,58.6,29.14,North,0,0.0,0.0,61,0.00,,,0.00,meteohub,2013-08-07 18:41:00,
2013-08-07 14:46:00,73.2,59.9,29.14,North,0,0.0,0.0,63,0.00,,,0.00,meteohub,2013-08-07 18:46:00,
2013-08-07 14:51:00,73.2,59.9,29.14,North,0,0.0,0.0,63,0.00,,,0.00,meteohub,2013-08-07 18:51:00,
2013-08-07 14:56:00,73.2,59.9,29.14,North,0,0.0,0.0,63,0.00,,,0.00,meteohub,2013-08-07 18:56:00,
2013-08-07 15:01:00,73.2,59.9,29.14,North,0,0.0,0.0,63,0.00,,,0.00,meteohub,2013-08-07 19:01:00,
2013-08-07 15:06:00,73.6,59.7,29.14,North,0,0.0,0.0,62,0.00,,,0.00,meteohub,2013-08-07 19:06:00,
2013-08-07 15:11:00,73.9,60.6,29.14,North,0,0.0,0.0,63,0.00,,,0.00,meteohub,2013-08-07 19:11:00,
2013-08-07 15:17:00,74.5,61.0,29.14,North,0,0.0,0.0,63,0.00,,,0.00,meteohub,2013-08-07 19:17:00,
2013-08-07 15:22:00,74.3,61.3,29.14,North,0,0.0,0.0,64,0.00,,,0.00,meteohub,2013-08-07 19:22:00,
2013-08-07 15:27:00,73.8,60.4,29.14,North,0,0.0,0.0,63,0.00,,,0.00,meteohub,2013-08-07 19:27:00,
2013-08-07 15:32:00,73.4,60.1,29.14,North,0,0.0,0.0,63,0.00,,,0.00,meteohub,2013-08-07 19:32:00,
2013-08-07 15:37:00,72.9,59.5,29.14,North,0,0.0,0.0,63,0.00,,,0.00,meteohub,2013-08-07 19:37:00,
2013-08-07 15:42:00,72.3,59.0,29.14,North,0,0.0,0.0,63,0.00,,,0.00,meteohub,2013-08-07 19:42:00,
2013-08-07 15:47:00,72.0,58.6,29.14,North,0,0.0,0.0,63,0.00,,,0.00,meteohub,2013-08-07 19:47:00,
2013-08-07 15:52:00,72.1,58.8,29.14,North,0,0.0,0.0,63,0.00,,,0.00,meteohub,2013-08-07 19:52:00,
2013-08-07 15:57:00,72.1,58.8,29.14,North,0,0.0,0.0,63,0.00,,,0.00,meteohub,2013-08-07 19:57:00,
2013-08-07 16:02:00,72.5,59.2,29.14,North,0,0.0,0.0,63,0.00,,,0.00,meteohub,2013-08-07 20:02:00,
2013-08-07 16:07:00,72.3,59.0,29.14,North,0,0.0,0.0,63,0.00,,,0.00,meteohub,2013-08-07 20:07:00,
2013-08-07 16:12:00,71.8,58.5,29.14,North,0,0.0,0.0,63,0.00,,,0.00,meteohub,2013-08-07 20:12:00,
2013-08-07 16:17:00,71.8,58.5,29.14,North,0,0.0,0.0,63,0.00,,,0.00,meteohub,2013-08-07 20:17:00,
2013-08-07 16:22:00,71.8,58.1,29.14,North,0,0.0,0.0,62,0.00,,,0.00,meteohub,2013-08-07 20:22:00,
2013-08-07 16:27:00,71.2,57.9,29.14,North,0,0.0,0.0,63,0.00,,,0.00,meteohub,2013-08-07 20:27:00,
2013-08-07 16:32:00,71.2,57.9,29.14,North,0,0.0,0.0,63,0.00,,,0.00,meteohub,2013-08-07 20:32:00,
2013-08-07 16:37:00,71.1,57.7,29.14,North,0,0.0,0.0,63,0.00,,,0.00,meteohub,2013-08-07 20:37:00,
2013-08-07 16:42:00,70.9,57.7,29.14,North,0,0.0,0.0,63,0.00,,,0.00,meteohub,2013-08-07 20:42:00,
2013-08-07 16:47:00,70.9,57.7,29.14,North,0,0.0,0.0,63,0.00,,,0.00,meteohub,2013-08-07 20:47:00,
2013-08-07 16:52:00,70.3,57.2,29.14,North,0,0.0,0.0,63,0.00,,,0.00,meteohub,2013-08-07 20:52:00,
2013-08-07 16:57:00,70.2,57.0,29.14,North,0,0.0,0.0,63,0.00,,,0.00,meteohub,2013-08-07 20:57:00,
2013-08-07 17:02:00,70.2,57.0,29.14,North,0,0.0,0.0,63,0.00,,,0.00,meteohub,2013-08-07 21:02:00,
2013-08-07 17:07:00,70.0,56.8,29.14,North,0,0.0,0.0,63,0.00,,,0.00,meteohub,2013-08-07 21:07:00,
2013-08-07 17:12:00,69.8,56.7,29.14,North,0,0.0,0.0,63,0.00,,,0.00,meteohub,2013-08-07 21:12:00,
2013-08-07 17:17:00,69.6,56.5,29.14,North,0,0.0,0.0,63,0.00,,,0.00,meteohub,2013-08-07 21:17:00,
2013-08-07 17:22:00,69.3,56.1,29.14,North,0,0.0,0.0,63,0.00,,,0.00,meteohub,2013-08-07 21:22:00,
2013-08-07 17:27:00,68.9,55.8,29.14,North,0,0.0,0.0,63,0.00,,,0.00,meteohub,2013-08-07 21:27:00,
2013-08-07 17:32:00,68.9,55.8,29.14,North,0,0.0,0.0,63,0.00,,,0.00,meteohub,2013-08-07 21:32:00,
2013-08-07 17:37:00,68.7,55.6,29.14,North,0,0.0,0.0,63,0.00,,,0.00,meteohub,2013-08-07 21:37:00,
2013-08-07 17:42:00,68.5,55.4,29.14,North,0,0.0,0.0,63,0.00,,,0.00,meteohub,2013-08-07 21:42:00,
2013-08-07 17:47:00,68.5,55.4,29.14,North,0,0.0,0.0,63,0.00,,,0.00,meteohub,2013-08-07 21:47:00,
2013-08-07 17:52:00,68.4,55.2,29.14,North,0,0.0,0.0,63,0.00,,,0.00,meteohub,2013-08-07 21:52:00,
2013-08-07 17:57:00,68.4,55.2,29.14,North,0,0.0,0.0,63,0.00,,,0.00,meteohub,2013-08-07 21:57:00,
2013-08-07 18:02:00,68.2,55.0,29.14,North,0,0.0,0.0,63,0.00,,,0.00,meteohub,2013-08-07 22:02:00,
2013-08-07 18:07:00,68.2,55.0,29.14,North,0,0.0,0.0,63,0.00,,,0.00,meteohub,2013-08-07 22:07:00,
2013-08-07 18:12:00,68.2,55.0,29.14,North,0,0.0,0.0,63,0.00,,,0.00,meteohub,2013-08-07 22:12:00,
2013-08-07 18:17:00,68.2,54.7,29.14,North,0,0.0,0.0,62,0.00,,,0.00,meteohub,2013-08-07 22:17:00,
2013-08-07 18:22:00,68.4,55.2,29.14,North,0,0.0,0.0,63,0.00,,,0.00,meteohub,2013-08-07 22:22:00,
2013-08-07 18:27:00,68.4,55.2,29.14,North,0,0.0,0.0,63,0.00,,,0.00,meteohub,2013-08-07 22:27:00,
2013-08-07 18:32:00,68.5,55.4,29.14,North,0,0.0,0.0,63,0.00,,,0.00,meteohub,2013-08-07 22:32:00,
2013-08-07 18:33:00,68.5,55.4,29.14,North,0,0.0,0.0,63,0.00,,,0.00,meteohub,2013-08-07 22:33:00,
2013-08-07 18:38:00,69.3,56.1,29.14,North,0,0.0,0.0,63,0.00,,,0.00,meteohub,2013-08-07 22:38:00,
2013-08-07 18:43:00,69.8,57.0,29.14,North,0,0.0,0.0,64,0.00,,,0.00,meteohub,2013-08-07 22:43:00,
2013-08-07 18:48:00,69.8,57.0,29.14,North,0,0.0,0.0,64,0.00,,,0.00,meteohub,2013-08-07 22:48:00,
2013-08-07 18:53:00,70.0,57.2,29.14,North,0,0.0,0.0,64,0.00,,,0.00,meteohub,2013-08-07 22:53:00,
2013-08-07 18:58:00,70.0,57.2,29.14,North,0,0.0,0.0,64,0.00,,,0.00,meteohub,2013-08-07 22:58:00,
2013-08-07 19:03:00,69.6,57.4,29.14,North,0,0.0,0.0,65,0.00,,,0.00,meteohub,2013-08-07 23:03:00,
2013-08-07 19:08:00,69.3,57.0,29.14,North,0,0.0,0.0,65,0.00,,,0.00,meteohub,2013-08-07 23:08:00,
2013-08-07 19:13:00,68.9,56.7,29.14,North,0,0.0,0.0,65,0.00,,,0.00,meteohub,2013-08-07 23:13:00,
2013-08-07 19:18:00,68.5,56.3,29.14,North,0,0.0,0.0,65,0.00,,,0.00,meteohub,2013-08-07 23:18:00,
2013-08-07 19:23:00,68.4,56.1,29.14,North,0,0.0,0.0,65,0.00,,,0.00,meteohub,2013-08-07 23:23:00,
2013-08-07 19:28:00,68.2,55.9,29.14,North,0,0.0,0.0,65,0.00,,,0.00,meteohub,2013-08-07 23:28:00,
2013-08-07 19:33:00,68.0,55.4,29.14,North,0,0.0,0.0,64,0.00,,,0.00,meteohub,2013-08-07 23:33:00,
2013-08-07 19:38:00,67.8,55.2,29.14,North,0,0.0,0.0,64,0.00,,,0.00,meteohub,2013-08-07 23:38:00,
2013-08-07 19:43:00,67.5,54.9,29.14,North,0,0.0,0.0,64,0.00,,,0.00,meteohub,2013-08-07 23:43:00,
2013-08-07 19:48:00,67.1,54.5,29.14,North,0,0.0,0.0,64,0.00,,,0.00,meteohub,2013-08-07 23:48:00,
2013-08-07 19:53:00,66.9,54.3,29.14,North,0,0.0,0.0,64,0.00,,,0.00,meteohub,2013-08-07 23:53:00,
2013-08-07 19:58:00,66.6,54.0,29.14,North,0,0.0,0.0,64,0.00,,,0.00,meteohub,2013-08-07 23:58:00,
2013-08-07 20:03:00,66.4,53.8,29.14,North,0,0.0,0.0,64,0.00,,,0.00,meteohub,2013-08-08 00:03:00,
2013-08-07 20:08:00,66.0,53.1,29.14,North,0,0.0,0.0,63,0.00,,,0.00,meteohub,2013-08-08 00:08:00,
2013-08-07 20:13:00,66.0,53.1,29.14,North,0,0.0,0.0,63,0.00,,,0.00,meteohub,2013-08-08 00:13:00,
2013-08-07 20:18:00,65.7,52.7,29.14,North,0,0.0,0.0,63,0.00,,,0.00,meteohub,2013-08-08 00:18:00,
2013-08-07 20:23:00,65.7,52.7,29.14,North,0,0.0,0.0,63,0.00,,,0.00,meteohub,2013-08-08 00:23:00,
2013-08-07 20:28:00,65.3,52.3,29.14,North,0,0.0,0.0,63,0.00,,,0.00,meteohub,2013-08-08 00:28:00,
2013-08-07 20:33:00,65.3,52.3,29.14,North,0,0.0,0.0,63,0.00,,,0.00,meteohub,2013-08-08 00:33:00,
2013-08-07 20:38:00,65.1,52.2,29.14,North,0,0.0,0.0,63,0.00,,,0.00,meteohub,2013-08-08 00:38:00,
2013-08-07 20:43:00,64.9,52.0,29.14,North,0,0.0,0.0,63,0.00,,,0.00,meteohub,2013-08-08 00:43:00,
2013-08-07 20:48:00,64.8,52.3,29.14,North,0,0.0,0.0,64,0.00,,,0.00,meteohub,2013-08-08 00:48:00,
2013-08-07 20:53:00,64.4,52.0,29.14,North,0,0.0,0.0,64,0.00,,,0.00,meteohub,2013-08-08 00:53:00,
2013-08-07 20:58:00,64.0,51.6,29.14,North,0,0.0,0.0,64,0.00,,,0.00,meteohub,2013-08-08 00:58:00,
2013-08-07 21:03:00,63.9,51.4,29.14,North,0,0.0,0.0,64,0.00,,,0.00,meteohub,2013-08-08 01:03:00,
2013-08-07 21:08:00,63.7,51.3,29.14,North,0,0.0,0.0,64,0.00,,,0.00,meteohub,2013-08-08 01:08:00,
2013-08-07 21:13:00,63.5,51.1,29.14,North,0,0.0,0.0,64,0.00,,,0.00,meteohub,2013-08-08 01:13:00,
2013-08-07 21:18:00,63.5,51.1,29.14,North,0,0.0,0.0,64,0.00,,,0.00,meteohub,2013-08-08 01:18:00,
2013-08-07 21:23:00,63.3,50.9,29.14,North,0,0.0,0.0,64,0.00,,,0.00,meteohub,2013-08-08 01:23:00,
2013-08-07 21:28:00,63.3,50.9,29.14,North,0,0.0,0.0,64,0.00,,,0.00,meteohub,2013-08-08 01:28:00,
2013-08-07 21:33:00,63.3,50.9,29.14,North,0,0.0,0.0,64,0.00,,,0.00,meteohub,2013-08-08 01:33:00,
2013-08-07 21:40:00,63.3,50.9,29.14,North,0,0.0,0.0,64,0.00,,,0.00,meteohub,2013-08-08 01:40:00,
2013-08-07 21:45:00,63.1,50.7,29.14,North,0,0.0,0.0,64,0.00,,,0.00,meteohub,2013-08-08 01:45:00,
2013-08-07 21:50:00,63.1,50.7,29.14,North,0,0.0,0.0,64,0.00,,,0.00,meteohub,2013-08-08 01:50:00,
2013-08-07 21:55:00,63.0,50.5,29.14,North,0,0.0,0.0,64,0.00,,,0.00,meteohub,2013-08-08 01:55:00,
2013-08-07 22:00:00,62.8,50.9,29.14,North,0,0.0,0.0,65,0.00,,,0.00,meteohub,2013-08-08 02:00:00,
2013-08-07 22:05:00,62.8,50.9,29.14,North,0,0.0,0.0,65,0.00,,,0.00,meteohub,2013-08-08 02:05:00,
2013-08-07 22:10:00,62.6,50.7,29.14,North,0,0.0,0.0,65,0.00,,,0.00,meteohub,2013-08-08 02:10:00,
2013-08-07 22:15:00,62.4,50.9,29.14,North,0,0.0,0.0,66,0.00,,,0.00,meteohub,2013-08-08 02:15:00,
2013-08-07 22:20:00,62.1,50.5,29.14,North,0,0.0,0.0,66,0.00,,,0.00,meteohub,2013-08-08 02:20:00,
2013-08-07 22:25:00,61.7,50.2,29.14,North,0,0.0,0.0,66,0.00,,,0.00,meteohub,2013-08-08 02:25:00,
2013-08-07 22:30:00,61.2,49.6,29.14,North,0,0.0,0.0,66,0.00,,,0.00,meteohub,2013-08-08 02:30:00,
2013-08-07 22:35:00,61.0,49.5,29.14,North,0,0.0,0.0,66,0.00,,,0.00,meteohub,2013-08-08 02:35:00,
2013-08-07 22:40:00,60.6,49.3,29.14,North,0,0.0,0.0,66,0.00,,,0.00,meteohub,2013-08-08 02:40:00,
2013-08-07 22:45:00,60.3,48.9,29.14,North,0,0.0,0.0,66,0.00,,,0.00,meteohub,2013-08-08 02:45:00,
2013-08-07 22:50:00,60.1,48.7,29.14,North,0,0.0,0.0,66,0.00,,,0.00,meteohub,2013-08-08 02:50:00,
2013-08-07 22:55:00,59.9,48.6,29.14,North,0,0.0,0.0,66,0.00,,,0.00,meteohub,2013-08-08 02:55:00,
2013-08-07 23:00:00,59.9,48.6,29.14,North,0,0.0,0.0,66,0.00,,,0.00,meteohub,2013-08-08 03:00:00,
2013-08-07 23:05:00,59.5,48.2,29.14,North,0,0.0,0.0,66,0.00,,,0.00,meteohub,2013-08-08 03:05:00,
2013-08-07 23:10:00,59.2,47.5,29.14,North,0,0.0,0.0,65,0.00,,,0.00,meteohub,2013-08-08 03:10:00,
2013-08-07 23:15:00,59.0,47.3,29.14,North,0,0.0,0.0,65,0.00,,,0.00,meteohub,2013-08-08 03:15:00,
2013-08-07 23:20:00,59.0,47.3,29.14,North,0,0.0,0.0,65,0.00,,,0.00,meteohub,2013-08-08 03:20:00,
2013-08-07 23:25:00,58.5,46.8,29.14,North,0,0.0,0.0,65,0.00,,,0.00,meteohub,2013-08-08 03:25:00,
2013-08-07 23:30:00,58.1,46.4,29.14,North,0,0.0,0.0,65,0.00,,,0.00,meteohub,2013-08-08 03:30:00,
2013-08-07 23:35:00,57.9,46.2,29.14,North,0,0.0,0.0,65,0.00,,,0.00,meteohub,2013-08-08 03:35:00,
2013-08-07 23:40:00,57.7,46.0,29.14,North,0,0.0,0.0,65,0.00,,,0.00,meteohub,2013-08-08 03:40:00,
2013-08-07 23:45:00,57.6,45.5,29.14,North,0,0.0,0.0,64,0.00,,,0.00,meteohub,2013-08-08 03:45:00,
2013-08-07 23:50:00,57.4,45.3,29.14,North,0,0.0,0.0,64,0.00,,,0.00,meteohub,2013-08-08 03:50:00,
2013-08-07 23:55:00,57.2,45.1,29.14,North,0,0.0,0.0,64,0.00,,,0.00,meteohub,2013-08-08 03:55:00,